owner,sensor,date,latitude,longitude,vertical_datum,direction_of_sea_water_velocity,sea_water_speed,upward_sea_water_velocity,qcFlag 
TABS,ioos:station:wmo:42049:1,2011-09-01T00:00:00Z,28.3507,-96.0058,2.0,270.6790178,17.73124361,-99999.0,'11111222,11111222,99999999' 
TABS,ioos:station:wmo:42049:1,2011-09-01T00:30:00Z,28.3507,-96.0058,2.0,265.0070449,18.50018919,-99999.0,'11111222,11111222,99999999' 
TABS,ioos:station:wmo:42049:1,2011-09-01T01:00:00Z,28.3507,-96.0058,2.0,266.0813394,18.29275813,-99999.0,'11111222,11111222,99999999' 
TABS,ioos:station:wmo:42049:1,2011-09-01T01:30:00Z,28.3507,-96.0058,2.0,270.444073,18.08054203,-99999.0,'11111222,11111222,99999999' 
TABS,ioos:station:wmo:42049:1,2011-09-01T02:00:00Z,28.3507,-96.0058,2.0,270.8626649,17.94203166,-99999.0,'11111222,11111222,99999999' 
TABS,ioos:station:wmo:42049:1,2011-09-01T02:30:00Z,28.3507,-96.0058,2.0,272.3658498,17.44486457,-99999.0,'11111222,11111222,99999999' 
TABS,ioos:station:wmo:42049:1,2011-09-01T03:00:00Z,28.3507,-96.0058,2.0,266.8714522,19.0583971,-99999.0,'11111222,11111222,99999999' 
TABS,ioos:station:wmo:42049:1,2011-09-01T03:30:00Z,28.3507,-96.0058,2.0,268.1197192,18.90017196,-99999.0,'11111222,11111222,99999999' 
TABS,ioos:station:wmo:42049:1,2011-09-01T04:00:00Z,28.3507,-96.0058,2.0,275.5680159,15.15147848,-99999.0,'11111222,11111222,99999999' 
TABS,ioos:station:wmo:42049:1,2011-09-01T04:30:00Z,28.3507,-96.0058,2.0,271.640818,17.11701493,-99999.0,'11111222,11111222,99999999' 
TABS,ioos:station:wmo:42049:1,2011-09-01T05:00:00Z,28.3507,-96.0058,2.0,269.8900273,15.69002868,-99999.0,'11111222,11111222,99999999' 
TABS,ioos:station:wmo:42049:1,2011-09-01T05:30:00Z,28.3507,-96.0058,2.0,281.5796347,16.68966746,-99999.0,'11111222,11111222,99999999' 
TABS,ioos:station:wmo:42049:1,2011-09-01T06:00:00Z,28.3507,-96.0058,2.0,286.6965102,17.61250976,-99999.0,'11111222,11111222,99999999' 
TABS,ioos:station:wmo:42049:1,2011-09-01T06:30:00Z,28.3507,-96.0058,2.0,280.0600748,17.97636226,-99999.0,'11111222,11111222,99999999' 
TABS,ioos:station:wmo:42049:1,2011-09-01T07:00:00Z,28.3507,-96.0058,2.0,291.3912074,16.06677317,-99999.0,'11111222,11111222,99999999' 
TABS,ioos:station:wmo:42049:1,2011-09-01T07:30:00Z,28.3507,-96.0058,2.0,285.888117,15.01351724,-99999.0,'11111222,11111222,99999999' 
TABS,ioos:station:wmo:42049:1,2011-09-01T08:00:00Z,28.3507,-96.0058,2.0,290.3147015,15.81357012,-99999.0,'11111222,11111222,99999999' 
TABS,ioos:station:wmo:42049:1,2011-09-01T08:30:00Z,28.3507,-96.0058,2.0,290.3974549,15.60866746,-99999.0,'11111222,11111222,99999999' 
TABS,ioos:station:wmo:42049:1,2011-09-01T09:00:00Z,28.3507,-96.0058,2.0,280.485093,15.38690677,-99999.0,'11111222,11111222,99999999' 
TABS,ioos:station:wmo:42049:1,2011-09-01T09:30:00Z,28.3507,-96.0058,2.0,279.5429874,12.90862115,-99999.0,'11111222,11111222,99999999' 
TABS,ioos:station:wmo:42049:1,2011-09-01T10:00:00Z,28.3507,-96.0058,2.0,276.6998011,16.02945102,-99999.0,'11111222,11111222,99999999' 
TABS,ioos:station:wmo:42049:1,2011-09-01T10:30:00Z,28.3507,-96.0058,2.0,275.6482494,15.44497653,-99999.0,'11111222,11111222,99999999' 
TABS,ioos:station:wmo:42049:1,2011-09-01T11:00:00Z,28.3507,-96.0058,2.0,273.8033755,13.72021137,-99999.0,'11111222,11111222,99999999' 
TABS,ioos:station:wmo:42049:1,2011-09-01T11:30:00Z,28.3507,-96.0058,2.0,264.9571398,11.94623372,-99999.0,'11111222,11111222,99999999' 
TABS,ioos:station:wmo:42049:1,2011-09-01T12:00:00Z,28.3507,-96.0058,2.0,266.9225832,13.59960661,-99999.0,'11111222,11111222,99999999' 
TABS,ioos:station:wmo:42049:1,2011-09-01T12:30:00Z,28.3507,-96.0058,2.0,262.3376458,13.50053332,-99999.0,'11111222,11111222,99999999' 
TABS,ioos:station:wmo:42049:1,2011-09-01T13:00:00Z,28.3507,-96.0058,2.0,251.1866032,15.81489488,-99999.0,'11111222,11111222,99999999' 
TABS,ioos:station:wmo:42049:1,2011-09-01T13:30:00Z,28.3507,-96.0058,2.0,259.4403484,16.31630166,-99999.0,'11111222,11111222,99999999' 
TABS,ioos:station:wmo:42049:1,2011-09-01T14:00:00Z,28.3507,-96.0058,2.0,262.5105245,15.42154986,-99999.0,'11111222,11111222,99999999' 
TABS,ioos:station:wmo:42049:1,2011-09-01T14:30:00Z,28.3507,-96.0058,2.0,263.0906977,14.7974491,-99999.0,'11111222,11111222,99999999' 
TABS,ioos:station:wmo:42049:1,2011-09-01T15:00:00Z,28.3507,-96.0058,2.0,267.0469077,15.53061815,-99999.0,'11111222,11111222,99999999' 
TABS,ioos:station:wmo:42049:1,2011-09-01T15:30:00Z,28.3507,-96.0058,2.0,267.2715678,15.96809632,-99999.0,'11111222,11111222,99999999' 
TABS,ioos:station:wmo:42049:1,2011-09-01T16:00:00Z,28.3507,-96.0058,2.0,267.0150215,19.20605113,-99999.0,'11111222,11111222,99999999' 
TABS,ioos:station:wmo:42049:1,2011-09-01T16:30:00Z,28.3507,-96.0058,2.0,265.0995993,18.14631919,-99999.0,'11111222,11111222,99999999' 
TABS,ioos:station:wmo:42049:1,2011-09-01T17:00:00Z,28.3507,-96.0058,2.0,267.0190363,19.61653639,-99999.0,'11111222,11111222,99999999' 
TABS,ioos:station:wmo:42049:1,2011-09-01T17:30:00Z,28.3507,-96.0058,2.0,265.4170937,18.64961662,-99999.0,'11111222,11111222,99999999' 
TABS,ioos:station:wmo:42049:1,2011-09-01T18:00:00Z,28.3507,-96.0058,2.0,265.6529936,19.39578562,-99999.0,'11111222,11111222,99999999' 
TABS,ioos:station:wmo:42049:1,2011-09-01T18:30:00Z,28.3507,-96.0058,2.0,271.6467206,20.18833326,-99999.0,'11111222,11111222,99999999' 
TABS,ioos:station:wmo:42049:1,2011-09-01T19:00:00Z,28.3507,-96.0058,2.0,272.119552,21.63479605,-99999.0,'11111222,11111222,99999999' 
TABS,ioos:station:wmo:42049:1,2011-09-01T19:30:00Z,28.3507,-96.0058,2.0,272.3426607,21.28778523,-99999.0,'11111222,11111222,99999999' 
TABS,ioos:station:wmo:42049:1,2011-09-01T20:00:00Z,28.3507,-96.0058,2.0,274.4685091,18.99773671,-99999.0,'11111222,11111222,99999999' 
TABS,ioos:station:wmo:42049:1,2011-09-01T20:30:00Z,28.3507,-96.0058,2.0,271.8967387,19.34059203,-99999.0,'11111222,11111222,99999999' 
TABS,ioos:station:wmo:42049:1,2011-09-01T21:00:00Z,28.3507,-96.0058,2.0,269.0386815,22.06310268,-99999.0,'11111222,11111222,99999999' 
TABS,ioos:station:wmo:42049:1,2011-09-01T21:30:00Z,28.3507,-96.0058,2.0,274.3673498,20.75024096,-99999.0,'11111222,11111222,99999999' 
TABS,ioos:station:wmo:42049:1,2011-09-01T22:00:00Z,28.3507,-96.0058,2.0,273.1098035,17.14524132,-99999.0,'11111222,11111222,99999999' 
TABS,ioos:station:wmo:42049:1,2011-09-01T22:30:00Z,28.3507,-96.0058,2.0,268.508027,16.13546715,-99999.0,'11111222,11111222,99999999' 
TABS,ioos:station:wmo:42049:1,2011-09-01T23:00:00Z,28.3507,-96.0058,2.0,260.3464709,17.77162908,-99999.0,'11111222,11111222,99999999' 
TABS,ioos:station:wmo:42049:1,2011-09-01T23:30:00Z,28.3507,-96.0058,2.0,261.6160492,19.82181122,-99999.0,'11111222,11111222,99999999' 
TABS,ioos:station:wmo:42049:1,2011-09-02T00:00:00Z,28.3507,-96.0058,2.0,262.4379252,20.66974843,-99999.0,'11111222,11111222,99999999' 
TABS,ioos:station:wmo:42049:1,2011-09-02T00:30:00Z,28.3507,-96.0058,2.0,263.9743302,20.29209945,-99999.0,'11111222,11111222,99999999' 
TABS,ioos:station:wmo:42049:1,2011-09-02T01:00:00Z,28.3507,-96.0058,2.0,261.7352917,16.9055553,-99999.0,'11111222,11111222,99999999' 
TABS,ioos:station:wmo:42049:1,2011-09-02T01:30:00Z,28.3507,-96.0058,2.0,256.0533253,20.0819745,-99999.0,'11111222,11111222,99999999' 
TABS,ioos:station:wmo:42049:1,2011-09-02T02:00:00Z,28.3507,-96.0058,2.0,258.7513355,20.04504178,-99999.0,'11111222,11111222,99999999' 
TABS,ioos:station:wmo:42049:1,2011-09-02T02:30:00Z,28.3507,-96.0058,2.0,246.872247,19.01843842,-99999.0,'11111222,11111222,99999999' 
TABS,ioos:station:wmo:42049:1,2011-09-02T03:00:00Z,28.3507,-96.0058,2.0,242.7855425,21.71361324,-99999.0,'11111222,11111222,99999999' 
TABS,ioos:station:wmo:42049:1,2011-09-02T03:30:00Z,28.3507,-96.0058,2.0,246.4507299,24.05316195,-99999.0,'11111222,11111222,99999999' 
TABS,ioos:station:wmo:42049:1,2011-09-02T04:00:00Z,28.3507,-96.0058,2.0,248.8947898,25.05029541,-99999.0,'11111222,11111222,99999999' 
TABS,ioos:station:wmo:42049:1,2011-09-02T04:30:00Z,28.3507,-96.0058,2.0,244.4687656,26.26466067,-99999.0,'11111222,11111222,99999999' 
TABS,ioos:station:wmo:42049:1,2011-09-02T05:00:00Z,28.3507,-96.0058,2.0,246.228439,27.06623358,-99999.0,'11111222,11111222,99999999' 
TABS,ioos:station:wmo:42049:1,2011-09-02T05:30:00Z,28.3507,-96.0058,2.0,250.7509949,28.72586465,-99999.0,'11111222,11111222,99999999' 
TABS,ioos:station:wmo:42049:1,2011-09-02T06:00:00Z,28.3507,-96.0058,2.0,250.4281001,29.97163993,-99999.0,'11111222,11111222,99999999' 
TABS,ioos:station:wmo:42049:1,2011-09-02T06:30:00Z,28.3507,-96.0058,2.0,250.6565483,32.12328906,-99999.0,'11111222,11111222,99999999' 
TABS,ioos:station:wmo:42049:1,2011-09-02T07:00:00Z,28.3507,-96.0058,2.0,246.3808646,34.01978542,-99999.0,'11111222,11111222,99999999' 
TABS,ioos:station:wmo:42049:1,2011-09-02T07:30:00Z,28.3507,-96.0058,2.0,247.9580516,35.44026665,-99999.0,'11111222,11111222,99999999' 
TABS,ioos:station:wmo:42049:1,2011-09-02T08:00:00Z,28.3507,-96.0058,2.0,251.195771,37.81846242,-99999.0,'11111222,11111222,99999999' 
TABS,ioos:station:wmo:42049:1,2011-09-02T08:30:00Z,28.3507,-96.0058,2.0,249.798407,39.4998038,-99999.0,'11111222,11111222,99999999' 
TABS,ioos:station:wmo:42049:1,2011-09-02T09:00:00Z,28.3507,-96.0058,2.0,247.3007401,39.59696074,-99999.0,'11111222,11111222,99999999' 
TABS,ioos:station:wmo:42049:1,2011-09-02T09:30:00Z,28.3507,-96.0058,2.0,243.9239857,36.65049113,-99999.0,'11111222,11111222,99999999' 
TABS,ioos:station:wmo:42049:1,2011-09-02T10:00:00Z,28.3507,-96.0058,2.0,244.3536927,37.63786657,-99999.0,'11111222,11111222,99999999' 
TABS,ioos:station:wmo:42049:1,2011-09-02T10:30:00Z,28.3507,-96.0058,2.0,243.25691,40.3791097,-99999.0,'11111222,11111222,99999999' 
TABS,ioos:station:wmo:42049:1,2011-09-02T11:00:00Z,28.3507,-96.0058,2.0,244.7371257,39.7407247,-99999.0,'11111222,11111222,99999999' 
TABS,ioos:station:wmo:42049:1,2011-09-02T11:30:00Z,28.3507,-96.0058,2.0,243.9079954,41.67725759,-99999.0,'11111222,11111222,99999999' 
TABS,ioos:station:wmo:42049:1,2011-09-02T12:00:00Z,28.3507,-96.0058,2.0,240.5377348,43.44865706,-99999.0,'11111222,11111222,99999999' 
TABS,ioos:station:wmo:42049:1,2011-09-02T12:30:00Z,28.3507,-96.0058,2.0,241.5666034,44.58852992,-99999.0,'11111222,11111222,99999999' 
TABS,ioos:station:wmo:42049:1,2011-09-02T13:00:00Z,28.3507,-96.0058,2.0,243.6660863,44.27450734,-99999.0,'11111222,11111222,99999999' 
TABS,ioos:station:wmo:42049:1,2011-09-02T13:30:00Z,28.3507,-96.0058,2.0,236.587155,43.51119396,-99999.0,'11111222,11111222,99999999' 
TABS,ioos:station:wmo:42049:1,2011-09-02T14:00:00Z,28.3507,-96.0058,2.0,236.881354,41.967933,-99999.0,'11111222,11111222,99999999' 
TABS,ioos:station:wmo:42049:1,2011-09-02T14:30:00Z,28.3507,-96.0058,2.0,236.0194345,44.90910375,-99999.0,'11111222,11111222,99999999' 
TABS,ioos:station:wmo:42049:1,2011-09-02T15:00:00Z,28.3507,-96.0058,2.0,244.0146929,45.05460687,-99999.0,'11111222,11111222,99999999' 
TABS,ioos:station:wmo:42049:1,2011-09-02T15:30:00Z,28.3507,-96.0058,2.0,244.5109537,46.66155591,-99999.0,'11111222,11111222,99999999' 
TABS,ioos:station:wmo:42049:1,2011-09-02T16:00:00Z,28.3507,-96.0058,2.0,242.2817815,53.79279506,-99999.0,'11111222,11111222,99999999' 
TABS,ioos:station:wmo:42049:1,2011-09-02T16:30:00Z,28.3507,-96.0058,2.0,244.2062806,54.78863477,-99999.0,'11111222,11111222,99999999' 
TABS,ioos:station:wmo:42049:1,2011-09-02T17:00:00Z,28.3507,-96.0058,2.0,243.0474632,56.92264576,-99999.0,'11111222,11111222,99999999' 
TABS,ioos:station:wmo:42049:1,2011-09-02T17:30:00Z,28.3507,-96.0058,2.0,246.4042131,50.24035927,-99999.0,'11111222,11111222,99999999' 
TABS,ioos:station:wmo:42049:1,2011-09-02T18:00:00Z,28.3507,-96.0058,2.0,248.1041113,56.52759415,-99999.0,'11111222,11111222,99999999' 
TABS,ioos:station:wmo:42049:1,2011-09-02T18:30:00Z,28.3507,-96.0058,2.0,250.1317371,59.05502942,-99999.0,'11111222,11111222,99999999' 
TABS,ioos:station:wmo:42049:1,2011-09-02T19:00:00Z,28.3507,-96.0058,2.0,248.8637708,61.06817502,-99999.0,'11111222,11111222,99999999' 
TABS,ioos:station:wmo:42049:1,2011-09-02T19:30:00Z,28.3507,-96.0058,2.0,249.6402335,57.63022991,-99999.0,'11111222,11111222,99999999' 
TABS,ioos:station:wmo:42049:1,2011-09-02T20:00:00Z,28.3507,-96.0058,2.0,248.9991577,55.52833151,-99999.0,'11111222,11111222,99999999' 
TABS,ioos:station:wmo:42049:1,2011-09-02T20:30:00Z,28.3507,-96.0058,2.0,249.1319527,54.01294752,-99999.0,'11111222,11111222,99999999' 
TABS,ioos:station:wmo:42049:1,2011-09-02T21:00:00Z,28.3507,-96.0058,2.0,249.6942353,52.70530334,-99999.0,'11111222,11111222,99999999' 
TABS,ioos:station:wmo:42049:1,2011-09-02T21:30:00Z,28.3507,-96.0058,2.0,248.0613965,59.87577557,-99999.0,'11111222,11111222,99999999' 
TABS,ioos:station:wmo:42049:1,2011-09-02T22:00:00Z,28.3507,-96.0058,2.0,248.7653555,56.65656626,-99999.0,'11111222,11111222,99999999' 
TABS,ioos:station:wmo:42049:1,2011-09-02T22:30:00Z,28.3507,-96.0058,2.0,249.7786538,58.23950034,-99999.0,'11111222,11111222,99999999' 
TABS,ioos:station:wmo:42049:1,2011-09-02T23:00:00Z,28.3507,-96.0058,2.0,247.8254697,52.80544385,-99999.0,'11111222,11111222,99999999' 
TABS,ioos:station:wmo:42049:1,2011-09-02T23:30:00Z,28.3507,-96.0058,2.0,253.5033479,50.29002684,-99999.0,'11111222,11111222,99999999' 
TABS,ioos:station:wmo:42049:1,2011-09-03T00:00:00Z,28.3507,-96.0058,2.0,249.9542404,53.44779228,-99999.0,'11111222,11111222,99999999' 
TABS,ioos:station:wmo:42049:1,2011-09-03T00:30:00Z,28.3507,-96.0058,2.0,252.6724341,53.48727419,-99999.0,'11111222,11111222,99999999' 
TABS,ioos:station:wmo:42049:1,2011-09-03T01:00:00Z,28.3507,-96.0058,2.0,251.9154891,48.54819667,-99999.0,'11111222,11111222,99999999' 
TABS,ioos:station:wmo:42049:1,2011-09-03T01:30:00Z,28.3507,-96.0058,2.0,250.0527104,56.80796071,-99999.0,'11111222,11111222,99999999' 
TABS,ioos:station:wmo:42049:1,2011-09-03T02:00:00Z,28.3507,-96.0058,2.0,244.7064574,53.99645637,-99999.0,'11111222,11111222,99999999' 
TABS,ioos:station:wmo:42049:1,2011-09-03T02:30:00Z,28.3507,-96.0058,2.0,244.82047,59.72495793,-99999.0,'11111222,11111222,99999999' 
TABS,ioos:station:wmo:42049:1,2011-09-03T03:00:00Z,28.3507,-96.0058,2.0,243.3747585,55.67365086,-99999.0,'11111222,11111222,99999999' 
TABS,ioos:station:wmo:42049:1,2011-09-03T03:30:00Z,28.3507,-96.0058,2.0,246.8055665,49.89250545,-99999.0,'11111222,11111222,99999999' 
TABS,ioos:station:wmo:42049:1,2011-09-03T04:00:00Z,28.3507,-96.0058,2.0,245.0379183,50.1880703,-99999.0,'11111222,11111222,99999999' 
TABS,ioos:station:wmo:42049:1,2011-09-03T04:30:00Z,28.3507,-96.0058,2.0,243.6280105,59.61391197,-99999.0,'11111222,11111222,99999999' 
TABS,ioos:station:wmo:42049:1,2011-09-03T05:00:00Z,28.3507,-96.0058,2.0,244.0088988,59.78651687,-99999.0,'11111222,11111222,99999999' 
TABS,ioos:station:wmo:42049:1,2011-09-03T05:30:00Z,28.3507,-96.0058,2.0,250.9792651,56.94926865,-99999.0,'11111222,11111222,99999999' 
TABS,ioos:station:wmo:42049:1,2011-09-03T06:00:00Z,28.3507,-96.0058,2.0,242.3387249,58.22444332,-99999.0,'11111222,11111222,99999999' 
TABS,ioos:station:wmo:42049:1,2011-09-03T06:30:00Z,28.3507,-96.0058,2.0,247.2572945,57.21859226,-99999.0,'11111222,11111222,99999999' 
TABS,ioos:station:wmo:42049:1,2011-09-03T07:00:00Z,28.3507,-96.0058,2.0,245.1804584,57.24755453,-99999.0,'11111222,11111222,99999999' 
TABS,ioos:station:wmo:42049:1,2011-09-03T07:30:00Z,28.3507,-96.0058,2.0,246.2450117,53.17504396,-99999.0,'11111222,11111222,99999999' 
TABS,ioos:station:wmo:42049:1,2011-09-03T08:00:00Z,28.3507,-96.0058,2.0,240.2089825,52.77431572,-99999.0,'11111222,11111222,99999999' 
TABS,ioos:station:wmo:42049:1,2011-09-03T08:30:00Z,28.3507,-96.0058,2.0,246.7221935,48.66089703,-99999.0,'11111222,11111222,99999999' 
TABS,ioos:station:wmo:42049:1,2011-09-03T09:00:00Z,28.3507,-96.0058,2.0,238.345351,52.93516789,-99999.0,'11111222,11111222,99999999' 
TABS,ioos:station:wmo:42049:1,2011-09-03T09:30:00Z,28.3507,-96.0058,2.0,249.1643786,50.43831084,-99999.0,'11111222,11111222,99999999' 
TABS,ioos:station:wmo:42049:1,2011-09-03T10:00:00Z,28.3507,-96.0058,2.0,244.4583417,50.56109572,-99999.0,'11111222,11111222,99999999' 
TABS,ioos:station:wmo:42049:1,2011-09-03T10:30:00Z,28.3507,-96.0058,2.0,249.0106223,51.73249366,-99999.0,'11111222,11111222,99999999' 
TABS,ioos:station:wmo:42049:1,2011-09-03T11:00:00Z,28.3507,-96.0058,2.0,241.6681712,51.79405854,-99999.0,'11111222,11111222,99999999' 
TABS,ioos:station:wmo:42049:1,2011-09-03T11:30:00Z,28.3507,-96.0058,2.0,237.7271398,48.88127351,-99999.0,'11111222,11111222,99999999' 
TABS,ioos:station:wmo:42049:1,2011-09-03T12:00:00Z,28.3507,-96.0058,2.0,239.4365856,48.55586679,-99999.0,'11111222,11111222,99999999' 
TABS,ioos:station:wmo:42049:1,2011-09-03T12:30:00Z,28.3507,-96.0058,2.0,238.5330204,46.89637939,-99999.0,'11111222,11111222,99999999' 
TABS,ioos:station:wmo:42049:1,2011-09-03T13:00:00Z,28.3507,-96.0058,2.0,242.3663215,51.57269142,-99999.0,'11111222,11111222,99999999' 
TABS,ioos:station:wmo:42049:1,2011-09-03T13:30:00Z,28.3507,-96.0058,2.0,239.8344563,45.65221243,-99999.0,'11111222,11111222,99999999' 
TABS,ioos:station:wmo:42049:1,2011-09-03T14:00:00Z,28.3507,-96.0058,2.0,240.1147294,42.62838491,-99999.0,'11111222,11111222,99999999' 
TABS,ioos:station:wmo:42049:1,2011-09-03T14:30:00Z,28.3507,-96.0058,2.0,242.8223294,43.52531218,-99999.0,'11111222,11111222,99999999' 
TABS,ioos:station:wmo:42049:1,2011-09-03T15:00:00Z,28.3507,-96.0058,2.0,241.967932,42.98236383,-99999.0,'11111222,11111222,99999999' 
TABS,ioos:station:wmo:42049:1,2011-09-03T15:30:00Z,28.3507,-96.0058,2.0,243.1215022,41.73906803,-99999.0,'11111222,11111222,99999999' 
TABS,ioos:station:wmo:42049:1,2011-09-03T16:00:00Z,28.3507,-96.0058,2.0,245.0782479,41.31717561,-99999.0,'11111222,11111222,99999999' 
TABS,ioos:station:wmo:42049:1,2011-09-03T16:30:00Z,28.3507,-96.0058,2.0,241.2966852,43.99619302,-99999.0,'11111222,11111222,99999999' 
TABS,ioos:station:wmo:42049:1,2011-09-03T17:00:00Z,28.3507,-96.0058,2.0,242.090716,38.32780322,-99999.0,'11111222,11111222,99999999' 
TABS,ioos:station:wmo:42049:1,2011-09-03T17:30:00Z,28.3507,-96.0058,2.0,243.4066477,36.68046346,-99999.0,'11111222,11111222,99999999' 
TABS,ioos:station:wmo:42049:1,2011-09-03T18:00:00Z,28.3507,-96.0058,2.0,244.3037367,35.37866589,-99999.0,'11111222,11111222,99999999' 
TABS,ioos:station:wmo:42049:1,2011-09-03T18:30:00Z,28.3507,-96.0058,2.0,239.7479003,35.19251199,-99999.0,'11111222,11111222,99999999' 
TABS,ioos:station:wmo:42049:1,2011-09-03T19:00:00Z,28.3507,-96.0058,2.0,236.572433,35.67037146,-99999.0,'11111222,11111222,99999999' 
TABS,ioos:station:wmo:42049:1,2011-09-03T19:30:00Z,28.3507,-96.0058,2.0,237.0266139,32.13629879,-99999.0,'11111222,11111222,99999999' 
TABS,ioos:station:wmo:42049:1,2011-09-03T20:00:00Z,28.3507,-96.0058,2.0,242.3850925,30.76451202,-99999.0,'11111222,11111222,99999999' 
TABS,ioos:station:wmo:42049:1,2011-09-03T20:30:00Z,28.3507,-96.0058,2.0,232.9963041,31.76808619,-99999.0,'11111222,11111222,99999999' 
TABS,ioos:station:wmo:42049:1,2011-09-03T21:00:00Z,28.3507,-96.0058,2.0,243.5256077,28.15213136,-99999.0,'11111222,11111222,99999999' 
TABS,ioos:station:wmo:42049:1,2011-09-03T21:30:00Z,28.3507,-96.0058,2.0,231.9423596,28.66415532,-99999.0,'11111222,11111222,99999999' 
TABS,ioos:station:wmo:42049:1,2011-09-03T22:00:00Z,28.3507,-96.0058,2.0,241.7159545,27.28783245,-99999.0,'11111222,11111222,99999999' 
TABS,ioos:station:wmo:42049:1,2011-09-03T22:30:00Z,28.3507,-96.0058,2.0,251.1180119,22.31054683,-99999.0,'11111222,11111222,99999999' 
TABS,ioos:station:wmo:42049:1,2011-09-03T23:00:00Z,28.3507,-96.0058,2.0,246.0080633,24.00380178,-99999.0,'11111222,11111222,99999999' 
TABS,ioos:station:wmo:42049:1,2011-09-03T23:30:00Z,28.3507,-96.0058,2.0,263.950481,18.69408998,-99999.0,'11111222,11111222,99999999' 
TABS,ioos:station:wmo:42049:1,2011-09-04T00:00:00Z,28.3507,-96.0058,2.0,266.3143126,15.09120605,-99999.0,'11111222,11111222,99999999' 
TABS,ioos:station:wmo:42049:1,2011-09-04T00:30:00Z,28.3507,-96.0058,2.0,281.0028673,14.61870719,-99999.0,'11111222,11111222,99999999' 
TABS,ioos:station:wmo:42049:1,2011-09-04T01:00:00Z,28.3507,-96.0058,2.0,293.9421452,11.23683674,-99999.0,'11111222,11111222,99999999' 
TABS,ioos:station:wmo:42049:1,2011-09-04T01:30:00Z,28.3507,-96.0058,2.0,305.5097772,11.79332438,-99999.0,'11111222,11111222,99999999' 
TABS,ioos:station:wmo:42049:1,2011-09-04T02:00:00Z,28.3507,-96.0058,2.0,334.1737461,9.021047611,-99999.0,'11133222,11111222,99999999' 
TABS,ioos:station:wmo:42049:1,2011-09-04T02:30:00Z,28.3507,-96.0058,2.0,4.794431314,7.777210297,-99999.0,'11133222,11111222,99999999' 
TABS,ioos:station:wmo:42049:1,2011-09-04T03:00:00Z,28.3507,-96.0058,2.0,2.722919041,7.578555271,-99999.0,'11133222,11111222,99999999' 
TABS,ioos:station:wmo:42049:1,2011-09-04T03:30:00Z,28.3507,-96.0058,2.0,29.70320057,8.496381583,-99999.0,'11133222,11111222,99999999' 
TABS,ioos:station:wmo:42049:1,2011-09-04T04:00:00Z,28.3507,-96.0058,2.0,54.21591034,13.5104256,-99999.0,'11111222,11111222,99999999' 
TABS,ioos:station:wmo:42049:1,2011-09-04T04:30:00Z,28.3507,-96.0058,2.0,54.13154288,16.7085517,-99999.0,'11111222,11111222,99999999' 
TABS,ioos:station:wmo:42049:1,2011-09-04T05:00:00Z,28.3507,-96.0058,2.0,60.10802511,14.48730479,-99999.0,'11111222,11111222,99999999' 
TABS,ioos:station:wmo:42049:1,2011-09-04T05:30:00Z,28.3507,-96.0058,2.0,58.44536527,20.6186566,-99999.0,'11111222,11111222,99999999' 
TABS,ioos:station:wmo:42049:1,2011-09-04T06:00:00Z,28.3507,-96.0058,2.0,60.08479279,25.02411837,-99999.0,'11111222,11111222,99999999' 
TABS,ioos:station:wmo:42049:1,2011-09-04T06:30:00Z,28.3507,-96.0058,2.0,65.76844399,27.02069022,-99999.0,'11111222,11111222,99999999' 
TABS,ioos:station:wmo:42049:1,2011-09-04T07:00:00Z,28.3507,-96.0058,2.0,59.37054261,27.63575221,-99999.0,'11111222,11111222,99999999' 
TABS,ioos:station:wmo:42049:1,2011-09-04T07:30:00Z,28.3507,-96.0058,2.0,63.91816727,31.82037869,-99999.0,'11111222,11111222,99999999' 
TABS,ioos:station:wmo:42049:1,2011-09-04T08:00:00Z,28.3507,-96.0058,2.0,70.50564576,32.15321135,-99999.0,'11111222,11111222,99999999' 
TABS,ioos:station:wmo:42049:1,2011-09-04T08:30:00Z,28.3507,-96.0058,2.0,69.01263411,32.02453591,-99999.0,'11111222,11111222,99999999' 
TABS,ioos:station:wmo:42049:1,2011-09-04T09:00:00Z,28.3507,-96.0058,2.0,64.77501559,34.42249991,-99999.0,'11111222,11111222,99999999' 
TABS,ioos:station:wmo:42049:1,2011-09-04T09:30:00Z,28.3507,-96.0058,2.0,71.79562941,36.93886436,-99999.0,'11111222,11111222,99999999' 
TABS,ioos:station:wmo:42049:1,2011-09-04T10:00:00Z,28.3507,-96.0058,2.0,75.78690298,35.35216118,-99999.0,'11111222,11111222,99999999' 
TABS,ioos:station:wmo:42049:1,2011-09-04T10:30:00Z,28.3507,-96.0058,2.0,71.85407969,35.73735441,-99999.0,'11111222,11111222,99999999' 
TABS,ioos:station:wmo:42049:1,2011-09-04T11:00:00Z,28.3507,-96.0058,2.0,68.05332198,40.2681636,-99999.0,'11111222,11111222,99999999' 
TABS,ioos:station:wmo:42049:1,2011-09-04T11:30:00Z,28.3507,-96.0058,2.0,69.52436718,48.39773238,-99999.0,'11111222,11111222,99999999' 
TABS,ioos:station:wmo:42049:1,2011-09-04T12:00:00Z,28.3507,-96.0058,2.0,69.66520414,47.59630763,-99999.0,'11111222,11111222,99999999' 
TABS,ioos:station:wmo:42049:1,2011-09-04T12:30:00Z,28.3507,-96.0058,2.0,69.14186802,47.94189087,-99999.0,'11111222,11111222,99999999' 
TABS,ioos:station:wmo:42049:1,2011-09-04T13:00:00Z,28.3507,-96.0058,2.0,69.76504292,47.4164539,-99999.0,'11111222,11111222,99999999' 
TABS,ioos:station:wmo:42049:1,2011-09-04T13:30:00Z,28.3507,-96.0058,2.0,71.17508371,49.24412858,-99999.0,'11111222,11111222,99999999' 
TABS,ioos:station:wmo:42049:1,2011-09-04T14:00:00Z,28.3507,-96.0058,2.0,72.20448482,46.75718661,-99999.0,'11111222,11111222,99999999' 
TABS,ioos:station:wmo:42049:1,2011-09-04T14:30:00Z,28.3507,-96.0058,2.0,76.75425432,49.92828457,-99999.0,'11111222,11111222,99999999' 
TABS,ioos:station:wmo:42049:1,2011-09-04T15:00:00Z,28.3507,-96.0058,2.0,72.77716555,48.7352788,-99999.0,'11111222,11111222,99999999' 
TABS,ioos:station:wmo:42049:1,2011-09-04T15:30:00Z,28.3507,-96.0058,2.0,73.70689801,46.6224077,-99999.0,'11111222,11111222,99999999' 
TABS,ioos:station:wmo:42049:1,2011-09-04T16:00:00Z,28.3507,-96.0058,2.0,75.04419504,51.38051382,-99999.0,'11111222,11111222,99999999' 